Wetterdaten: aktuell Dienstag, 07.12.2021 21:00
Datum Zeit Temp. A. Feuchte A. Luftdruck Regen Wind Richtung Richtung Sonnenschein ET UV Solar Taupunkt Windchill Windben
07.12.2021 21:00 2,6 C 88 % 1009,9 hPa 0,0 l/m 3,4 km/h (1 Bft) SO 144 0 min 0,000 mm 0,0 UV-I 0 W/m 0,8 C 2,6 C 8,0 km/h (2 Bft)
07.12.2021 20:00 2,6 C 88 % 1010,5 hPa 0,0 l/m 2,1 km/h (1 Bft) S-SO 165 0 min 0,000 mm 0,0 UV-I 0 W/m 0,8 C 2,6 C 6,4 km/h (2 Bft)
07.12.2021 19:00 2,6 C 87 % 1010,9 hPa 0,0 l/m 0,7 km/h (0 Bft) S-SO 159 0 min 0,000 mm 0,0 UV-I 0 W/m 0,7 C 2,6 C 6,4 km/h (2 Bft)
07.12.2021 18:00 2,7 C 87 % 1011,3 hPa 0,0 l/m 0,1 km/h (0 Bft) S-SO 148 0 min 0,000 mm 0,0 UV-I 0 W/m 0,8 C 2,7 C 3,2 km/h (1 Bft)
07.12.2021 17:00 2,8 C 86 % 1011,8 hPa 0,0 l/m 0,0 km/h (0 Bft) W 262 0 min 0,000 mm 0,0 UV-I 0 W/m 0,7 C 2,8 C 0,0 km/h (0 Bft)
07.12.2021 16:00 3,0 C 85 % 1011,7 hPa 0,0 l/m 0,2 km/h (0 Bft) W 262 0 min 0,025 mm 0,0 UV-I 0 W/m 0,7 C 3,0 C 3,2 km/h (1 Bft)
07.12.2021 15:00 3,2 C 84 % 1011,7 hPa 0,0 l/m 1,9 km/h (1 Bft) W-NW 298 0 min 0,025 mm 0,0 UV-I 23 W/m 0,8 C 3,2 C 6,4 km/h (2 Bft)
07.12.2021 14:00 3,3 C 84 % 1011,4 hPa 0,0 l/m 0,1 km/h (0 Bft) NW 318 0 min 0,026 mm 0,0 UV-I 32 W/m 0,9 C 3,3 C 1,6 km/h (1 Bft)
07.12.2021 13:00 3,1 C 85 % 1011,3 hPa 0,0 l/m 0,1 km/h (0 Bft) S-SO 167 0 min 0,025 mm 0,0 UV-I 39 W/m 0,8 C 3,1 C 1,6 km/h (1 Bft)
07.12.2021 12:00 2,7 C 85 % 1011,0 hPa 0,0 l/m 0,1 km/h (0 Bft) SO 141 0 min 0,051 mm 0,5 UV-I 98 W/m 0,4 C 2,7 C 1,6 km/h (1 Bft)
07.12.2021 11:00 1,8 C 86 % 1011,1 hPa 0,0 l/m 0,6 km/h (0 Bft) SO 141 10 min 0,051 mm 0,5 UV-I 72 W/m -0,3 C 1,8 C 3,2 km/h (1 Bft)
07.12.2021 10:00 1,1 C 87 % 1010,7 hPa 0,0 l/m 0,0 km/h (0 Bft) SO 140 0 min 0,025 mm 0,5 UV-I 109 W/m -0,8 C 1,1 C 0,0 km/h (0 Bft)
07.12.2021 09:00 0,6 C 87 % 1010,5 hPa 0,0 l/m 1,4 km/h (1 Bft) SO 140 5 min 0,000 mm 0,0 UV-I 28 W/m -1,3 C 0,6 C 3,2 km/h (1 Bft)
07.12.2021 08:00 0,3 C 88 % 1009,8 hPa 0,0 l/m 0,0 km/h (0 Bft) S-SO 157 0 min 0,000 mm 0,0 UV-I 5 W/m -1,4 C 0,3 C 3,2 km/h (1 Bft)
07.12.2021 07:00 -0,2 C 88 % 1009,9 hPa 0,0 l/m 0,0 km/h (0 Bft) N 0 0 min 0,000 mm 0,0 UV-I 0 W/m -1,9 C -0,2 C 0,0 km/h (0 Bft)
07.12.2021 06:00 0,4 C 88 % 1009,9 hPa 0,0 l/m 1,6 km/h (1 Bft) S-SO 157 0 min 0,000 mm 0,0 UV-I 0 W/m -1,3 C 0,4 C 9,7 km/h (2 Bft)
07.12.2021 05:00 0,1 C 91 % 1009,9 hPa 0,0 l/m 3,2 km/h (1 Bft) S-SO 157 0 min 0,000 mm 0,0 UV-I 0 W/m -1,2 C 0,1 C 8,0 km/h (2 Bft)
07.12.2021 04:00 0,0 C 91 % 1009,8 hPa 0,0 l/m 0,0 km/h (0 Bft) S-SO 157 0 min 0,000 mm 0,0 UV-I 0 W/m -1,3 C 0,0 C 3,2 km/h (1 Bft)
07.12.2021 03:00 -0,4 C 90 % 1010,6 hPa 0,0 l/m 0,0 km/h (0 Bft) S-SO 157 0 min 0,000 mm 0,0 UV-I 0 W/m -1,8 C -0,4 C 4,8 km/h (1 Bft)
07.12.2021 02:00 -0,3 C 89 % 1011,2 hPa 0,0 l/m 0,0 km/h (0 Bft) SO 135 0 min 0,000 mm 0,0 UV-I 0 W/m -1,9 C -0,3 C 4,8 km/h (1 Bft)
07.12.2021 01:00 0,1 C 89 % 1011,9 hPa 0,0 l/m 0,0 km/h (0 Bft) N 0 0 min 0,000 mm 0,0 UV-I 0 W/m -1,5 C 0,1 C 0,0 km/h (0 Bft)
07.12.2021 00:00 0,0 C 89 % 1012,8 hPa 0,0 l/m 1,6 km/h (1 Bft) SO 135 0 min 0,000 mm 0,0 UV-I 0 W/m -1,6 C 0,0 C 4,8 km/h (1 Bft)
_ Min-Zeit 03:15 13:20 04:00 - 00:05 - - - - - - 07:00 02:10 00:30
Minimum _ -0,5 C 84 % 1009,8 hPa - 0,0 km/h (0 Bft) - - - - - - -1,9 C -0,4 C 0,0 km/h (0 Bft)
_ Max-Zeit 13:35 03:30 00:00 00:00 21:00 - - 08:15 11:00 11:35 10:20 13:35 13:35 05:10
Maximum _ 3,3 C 91 % 1012,8 hPa 0,0 l/m 3,4 km/h
SO (1 Bft)
- - 5 min 0,051 mm 0,7 UV-I 142 W/m 1,0 C 3,3 C 9,7 km/h
SO (2 Bft)
Durchschnitt _ 1,5 C 87 % 1010,9 hPa #0,0 l/m 0,5 km/h (0 Bft) S-SO - #15 min. #0,203 mm 0,5 UV-I 59 W/m -0,4 C 1,5 C 3,4 km/h (1 Bft)